Location: Mississauga
(43.5802°N, 79.6166°W)
Time: 09:09:38
(UTC-04:00)

Cosmos 1437 Rocket - Visible Passes

Search period start: 30 July 2014 00:00
Search period end: 09 August 2014 00:00
Orbit: 527 x 568 km, 81.2° (Epoch: 28 July)

Date Brightness Start Highest point End Pass type
(mag) Time Alt. Az. Time Alt. Az. Time Alt. Az.
30 Jul 4.0 01:01:24 10° N 01:04:13 42° N 01:04:13 42° N visible
31 Jul 4.0 00:56:13 10° N 00:58:59 41° N 00:58:59 41° N visible
01 Aug 4.1 00:51:02 10° N 00:53:45 41° N 00:53:45 41° N visible
02 Aug 4.1 00:45:52 10° N 00:48:32 40° NNW 00:48:32 40° NNW visible
03 Aug 4.1 00:40:41 10° NNW 00:43:19 39° NNW 00:43:19 39° NNW visible
04 Aug 4.2 00:35:31 10° NNW 00:38:07 38° NNW 00:38:07 38° NNW visible
04 Aug 5.3 22:56:19 10° NE 22:57:17 11° ENE 22:57:17 11° ENE visible
05 Aug 4.2 00:30:20 10° NNW 00:32:56 37° NNW 00:32:56 37° NNW visible
05 Aug 5.2 22:50:43 10° NE 22:52:06 12° ENE 22:52:06 12° ENE visible
06 Aug 4.3 00:25:10 10° NNW 00:27:45 36° NW 00:27:45 36° NW visible
06 Aug 5.1 22:45:14 10° NE 22:46:55 13° ENE 22:46:55 13° ENE visible
07 Aug 4.3 00:20:00 10° NNW 00:22:35 35° NW 00:22:35 35° NW visible
07 Aug 5.0 22:39:48 10° NE 22:41:45 14° ENE 22:41:45 14° ENE visible
08 Aug 4.3 00:14:50 10° NNW 00:17:25 34° NW 00:17:25 34° NW visible
08 Aug 4.9 22:34:24 10° NNE 22:36:36 15° ENE 22:36:36 15° ENE visible
